KB3GVC-13 Weather Reports


Display with metric or nautical units.
time (UTC)temp
F
wind
direction
speed
MPH
gust
MPH
rain 1hr
in
rain 24hr
in
rain mn
in
humidity
%
barometer
mb
20260510142356 71 251 1.0 3.0 0.00 0.00 0.00 66 1014.3
20260510141853 70 292 1.0 3.0 0.00 0.00 0.00 67 1014.4
20260510141351 69 285 2.0 4.0 0.00 0.00 0.00 70 1014.5
20260510140848 69 268 1.0 2.0 0.00 0.00 0.00 68 1014.6
20260510140344 69 257 2.0 3.0 0.00 0.00 0.00 67 1014.4
20260510135843 68 293 0.0 3.0 0.00 0.00 0.00 70 1014.4
20260510135339 68 141 1.0 1.0 0.00 0.00 0.00 69 1014.3
20260510134836 68 263 0.0 1.0 0.00 0.00 0.00 70 1014.3
20260510134333 68 308 1.0 2.0 0.00 0.00 0.00 72 1014.4
20260510133829 66 296 0.0 1.0 0.00 0.00 0.00 74 1014.5
20260510133326 66 286 1.0 1.0 0.00 0.00 0.00 76 1014.6
20260510132821 65 279 0.0 0.0 0.00 0.00 0.00 75 1014.4
20260510132319 67 294 1.0 1.0 0.00 0.00 0.00 73 1014.5
20260510131816 64 295 0.0 0.0 0.00 0.00 0.00 76 1014.4
20260510131314 63 278 0.0 1.0 0.00 0.00 0.00 79 1014.5
20260510130810 64 30 0.0 1.0 0.00 0.00 0.00 78 1014.5
20260510130307 64 52 0.0 1.0 0.00 0.00 0.00 78 1014.6
20260510125803 62 60 0.0 0.0 0.00 0.00 0.00 80 1014.4
20260510125259 61 59 0.0 0.0 0.00 0.00 0.00 81 1014.7
20260510124756 62 94 1.0 1.0 0.00 0.00 0.00 82 1014.6
20260510124253 60 103 0.0 1.0 0.00 0.00 0.00 83 1014.6
20260510123749 60 106 1.0 1.0 0.00 0.00 0.00 85 1014.7
20260510123245 60 107 1.0 1.0 0.00 0.00 0.00 85 1014.6
20260510122741 60 107 0.0 0.0 0.00 0.00 0.00 85 1014.5
20260510122238 59 107 0.0 1.0 0.00 0.00 0.00 88 1014.5
20260510121734 58 107 0.0 0.0 0.00 0.00 0.00 90 1014.5
20260510121232 57 107 0.0 1.0 0.00 0.00 0.00 90 1014.4
20260510120729 57 127 0.0 0.0 0.00 0.00 0.00 90 1014.2
20260510120226 55 127 1.0 2.0 0.00 0.00 0.00 94 1014.2
20260510115721 55 11 0.0 1.0 0.00 0.00 0.00 98 1014.0
20260510115220 55 10 0.0 1.0 0.00 0.00 0.00 99 1014.1
20260510114714 54 9 0.0 1.0 0.00 0.00 0.00 99 1013.8
20260510114212 53 9 0.0 1.0 0.00 0.00 0.00 99 1014.1
20260510113707 53 9 0.0 0.0 0.00 0.00 0.00 99 1013.9
20260510113204 53 9 0.0 2.0 0.00 0.00 0.00 99 1013.7
20260510112700 53 37 2.0 3.0 0.00 0.00 0.00 99 1013.9
20260510112158 53 325 4.0 4.0 0.00 0.00 0.00 99 1014.0
20260510111653 52 303 2.0 3.0 0.00 0.00 0.00 99 1013.9
20260510111151 52 274 0.0 0.0 0.00 0.00 0.00 99 1013.6
20260510110645 51 274 0.0 0.0 0.00 0.00 0.00 99 1013.3
20260510110143 51 274 0.0 0.0 0.00 0.00 0.00 99 1013.4
20260510105638 50 274 0.0 0.0 0.00 0.00 0.00 99 1013.4
20260510105138 50 274 0.0 0.0 0.00 0.00 0.00 99 1013.3
20260510104635 50 274 0.0 0.0 0.00 0.00 0.00 99 1013.5
20260510104132 50 274 0.0 0.0 0.00 0.00 0.00 99 1013.2
20260510103629 50 274 0.0 1.0 0.00 0.00 0.00 99 1013.2
20260510103125 49 274 0.0 0.0 0.00 0.00 0.00 99 1013.0
20260510102620 49 274 0.0 0.0 0.00 0.00 0.00 99 1012.8
20260510102116 49 274 0.0 0.0 0.00 0.00 0.00 99 1012.8
20260510101614 49 274 0.0 0.0 0.00 0.00 0.00 99 1012.8
20260510101112 48 274 0.0 0.0 0.00 0.00 0.00 99 1012.8
20260510100608 49 274 0.0 0.0 0.00 0.00 0.00 99 1012.9
20260510100106 49 274 0.0 0.0 0.00 0.00 0.00 99 1013.0
20260510095602 49 274 0.0 0.0 0.00 0.00 0.00 99 1012.9
20260510095102 49 274 0.0 0.0 0.00 0.00 0.00 99 1012.6
20260510094601 49 274 0.0 0.0 0.00 0.00 0.00 99 1012.5
20260510094057 49 274 0.0 0.0 0.00 0.00 0.00 99 1012.5
20260510093553 49 274 0.0 0.0 0.00 0.00 0.00 99 1012.6
20260510093050 50 274 0.0 1.0 0.00 0.00 0.00 99 1012.7
20260510092547 50 274 0.0 0.0 0.00 0.00 0.00 99 1012.4
20260510092046 50 274 0.0 0.0 0.00 0.00 0.00 99 1012.6
20260510091543 51 274 0.0 2.0 0.00 0.00 0.00 99 1012.9
20260510091039 51 273 0.0 1.0 0.00 0.00 0.00 99 1012.4
20260510090536 51 303 2.0 2.0 0.00 0.00 0.00 99 1012.8
20260510090032 51 315 1.0 2.0 0.00 0.00 0.00 99 1012.3
20260510085532 51 172 0.0 1.0 0.00 0.00 0.00 99 1012.4
20260510085029 51 302 4.0 4.0 0.00 0.00 0.00 99 1012.5
20260510084526 50 290 1.0 4.0 0.00 0.00 0.00 99 1012.8
20260510084022 48 298 2.0 4.0 0.00 0.00 0.00 99 1012.5
20260510083519 48 22 0.0 0.0 0.00 0.00 0.00 99 1012.1
20260510083015 48 22 0.0 0.0 0.00 0.00 0.00 99 1012.0
20260510082513 48 22 0.0 0.0 0.00 0.00 0.00 99 1012.1
20260510082012 47 22 0.0 0.0 0.00 0.00 0.00 99 1011.9
20260510081508 47 22 0.0 0.0 0.00 0.00 0.00 99 1011.8
20260510081004 48 22 0.0 0.0 0.00 0.00 0.00 99 1011.9
20260510080502 48 22 0.0 0.0 0.00 0.00 0.00 99 1011.9
20260510080000 48 22 0.0 0.0 0.00 0.00 0.00 99 1012.0
20260510075457 48 22 0.0 0.0 0.00 0.00 0.00 99 1012.0
20260510074954 48 22 0.0 0.0 0.00 0.00 0.00 99 1012.1
20260510074452 48 22 0.0 0.0 0.00 0.00 0.00 99 1011.8
20260510073947 49 22 0.0 0.0 0.00 0.00 0.00 99 1012.0
20260510073443 49 22 0.0 0.0 0.00 0.00 0.00 99 1011.7
20260510072940 48 22 0.0 0.0 0.00 0.00 0.00 99 1012.0
20260510072437 48 22 0.0 0.0 0.00 0.00 0.00 99 1011.7
20260510071932 48 36 0.0 0.0 0.00 0.00 0.00 99 1011.6
20260510071429 48 43 0.0 0.0 0.00 0.00 0.00 99 1011.4
20260510070927 48 43 0.0 0.0 0.00 0.00 0.00 99 1011.1
20260510070424 48 43 0.0 0.0 0.00 0.00 0.00 99 1011.4
20260510065919 48 43 0.0 0.0 0.00 0.00 0.00 99 1011.3
20260510065416 48 43 0.0 0.0 0.00 0.00 0.00 99 1011.3
20260510064912 48 43 0.0 0.0 0.00 0.00 0.00 99 1011.4
20260510064411 48 43 0.0 0.0 0.00 0.00 0.00 99 1011.3
20260510063907 49 43 0.0 0.0 0.00 0.00 0.00 99 1011.5
20260510063403 49 43 0.0 0.0 0.00 0.00 0.00 99 1011.3
20260510062901 49 43 0.0 0.0 0.00 0.00 0.00 99 1011.5
20260510062355 48 43 0.0 0.0 0.00 0.00 0.00 99 1011.5
20260510061851 49 43 0.0 0.0 0.00 0.00 0.00 99 1011.5
20260510061348 48 43 0.0 0.0 0.00 0.00 0.00 99 1011.4
20260510060844 48 43 0.0 0.0 0.00 0.00 0.00 99 1011.5
20260510060341 49 43 0.0 0.0 0.00 0.00 0.00 99 1011.5
20260510055838 48 43 0.0 0.0 0.00 0.00 0.00 99 1011.6
20260510055337 49 43 0.0 0.0 0.00 0.00 0.00 99 1011.6
20260510054836 49 43 0.0 0.0 0.00 0.00 0.00 99 1011.6
20260510054332 49 43 0.0 0.0 0.00 0.00 0.00 99 1011.7
20260510053827 49 43 0.0 0.0 0.00 0.00 0.00 99 1011.7
20260510053323 49 43 0.0 0.0 0.00 0.00 0.00 99 1011.8
20260510052820 49 43 0.0 0.0 0.00 0.00 0.00 99 1011.7
20260510052315 49 43 0.0 0.0 0.00 0.00 0.00 99 1011.5
20260510051811 49 43 0.0 0.0 0.00 0.00 0.00 99 1011.9
20260510051308 49 43 0.0 0.0 0.00 0.00 0.00 99 1011.9
20260510050806 49 43 0.0 0.0 0.00 0.00 0.00 99 1011.9
20260510050302 50 43 0.0 0.0 0.00 0.00 0.00 99 1011.9
20260510045759 50 43 0.0 0.0 0.00 0.00 0.00 99 1011.9
20260510045256 50 43 0.0 0.0 0.00 0.00 0.00 99 1012.0
20260510044753 50 43 0.0 0.0 0.00 0.00 0.00 99 1011.8
20260510044250 50 43 0.0 0.0 0.00 0.00 0.00 99 1012.1
20260510043746 50 43 0.0 0.0 0.00 0.00 0.00 99 1011.9
20260510043243 50 43 0.0 0.0 0.00 0.00 0.00 99 1011.9
20260510042740 50 43 0.0 0.0 0.00 0.00 0.00 99 1012.1
20260510042235 50 43 0.0 0.0 0.00 0.00 0.00 99 1012.0
20260510041732 50 43 0.0 0.0 0.00 0.00 0.00 99 1012.1
20260510041230 50 43 0.0 0.0 0.00 0.00 0.00 99 1012.1
20260510040727 50 43 0.0 0.0 0.00 0.00 0.00 99 1012.1
20260510040224 50 43 0.0 0.0 0.00 0.00 0.00 99 1011.9
20260510035719 50 43 0.0 0.0 0.00 0.00 0.00 99 1012.2
20260510035215 50 43 0.0 0.0 0.00 0.00 0.00 99 1012.0
20260510034711 51 43 0.0 0.0 0.00 0.00 0.00 99 1012.0
20260510034209 50 43 0.0 0.0 0.00 0.00 0.00 99 1012.0
20260510033705 51 43 0.0 0.0 0.00 0.00 0.00 99 1012.0
20260510033203 51 43 0.0 0.0 0.00 0.00 0.00 98 1011.8
20260510032659 51 43 0.0 0.0 0.00 0.00 0.00 98 1012.1
20260510032154 51 43 0.0 0.0 0.00 0.00 0.00 98 1012.0
20260510031649 51 43 0.0 0.0 0.00 0.00 0.00 98 1011.9
20260510031147 51 43 0.0 0.0 0.00 0.00 0.00 98 1011.7
20260510030646 51 43 0.0 0.0 0.00 0.00 0.00 98 1011.6
20260510030144 50 43 0.0 0.0 0.00 0.00 0.00 97 1011.8
20260510025641 51 43 0.0 0.0 0.00 0.00 0.00 97 1011.6
20260510025138 51 43 0.0 0.0 0.00 0.00 0.00 97 1011.6
20260510024635 52 43 0.0 0.0 0.00 0.00 0.00 97 1011.6
20260510024132 52 43 0.0 0.0 0.00 0.00 0.00 97 1011.6
20260510023627 52 43 0.0 0.0 0.00 0.00 0.00 96 1011.6
20260510023125 52 43 0.0 0.0 0.00 0.00 0.00 96 1011.5
20260510022625 53 43 0.0 0.0 0.00 0.00 0.00 96 1011.6
20260510022120 53 43 0.0 0.0 0.00 0.00 0.00 96 1011.5
20260510021616 53 43 0.0 0.0 0.00 0.00 0.00 96 1011.6
20260510021114 53 43 0.0 0.0 0.00 0.00 0.00 96 1011.6
20260510020613 53 43 0.0 0.0 0.00 0.00 0.00 96 1011.6
20260510020109 53 43 0.0 0.0 0.00 0.00 0.00 96 1011.5
20260510015605 53 43 0.0 0.0 0.00 0.00 0.00 95 1011.6
20260510015102 53 43 0.0 0.0 0.00 0.00 0.00 95 1011.5
20260510014558 53 43 0.0 0.0 0.00 0.00 0.00 94 1011.5
20260510014055 54 43 0.0 0.0 0.00 0.00 0.00 94 1011.5
20260510013549 54 43 0.0 0.0 0.00 0.00 0.00 94 1011.4
20260510013046 53 43 0.0 0.0 0.00 0.00 0.00 94 1011.5
20260510012545 53 43 0.0 0.0 0.00 0.00 0.00 93 1011.4
20260510012042 54 43 0.0 0.0 0.00 0.00 0.00 92 1011.0
20260510011542 54 43 0.0 0.0 0.00 0.00 0.00 92 1011.2
20260510011038 55 43 0.0 0.0 0.00 0.00 0.00 92 1011.2
20260510010534 55 43 0.0 0.0 0.00 0.00 0.00 91 1011.2
20260510010032 55 43 0.0 0.0 0.00 0.00 0.00 90 1011.2
20260510005527 55 43 0.0 0.0 0.00 0.00 0.00 90 1011.1
20260510005025 56 43 0.0 0.0 0.00 0.00 0.00 89 1011.1
20260510004522 56 43 0.0 0.0 0.00 0.00 0.00 88 1011.1
20260510004021 56 43 0.0 0.0 0.00 0.00 0.00 88 1011.0
20260510003517 56 43 0.0 0.0 0.00 0.00 0.00 87 1011.1
20260510003012 57 43 0.0 0.0 0.00 0.00 0.00 86 1011.0
20260510002508 57 43 0.0 0.0 0.00 0.00 0.00 85 1011.1
20260510002005 58 43 0.0 0.0 0.00 0.00 0.00 84 1011.0
20260510001503 58 43 0.0 0.0 0.00 0.00 0.00 83 1010.9
20260510001000 58 43 0.0 0.0 0.00 0.00 0.00 82 1011.0
20260510000456 59 43 0.0 0.0 0.00 0.00 0.00 82 1011.1
20260509235952 59 43 0.0 0.0 0.00 0.00 0.00 81 1011.1
20260509235449 59 43 0.0 0.0 0.00 0.00 0.00 80 1011.1
20260509234945 60 43 0.0 0.0 0.00 0.00 0.00 79 1011.0
20260509234442 60 41 0.0 1.0 0.00 0.00 0.00 79 1011.1
20260509233940 60 3 0.0 0.0 0.00 0.00 0.00 79 1011.2
20260509233438 60 3 0.0 1.0 0.00 0.00 0.00 78 1011.0
20260509232933 61 3 0.0 2.0 0.00 0.00 0.00 78 1010.9
20260509232431 61 52 0.0 1.0 0.00 0.00 0.00 77 1010.9
20260509231927 62 31 2.0 3.0 0.00 0.00 0.00 77 1010.8
20260509231424 62 16 1.0 3.0 0.00 0.00 0.00 76 1010.9
20260509230922 63 11 2.0 3.0 0.00 0.00 0.00 75 1010.8
20260509230418 63 22 0.0 2.0 0.00 0.00 0.00 74 1010.9
20260509225914 63 11 0.0 0.0 0.00 0.00 0.00 74 1010.8
20260509225411 63 347 1.0 3.0 0.00 0.00 0.00 73 1010.6
20260509224907 63 356 2.0 6.0 0.00 0.00 0.00 73 1010.7
20260509224403 64 42 0.0 1.0 0.00 0.00 0.00 73 1010.7
20260509223900 64 20 2.0 3.0 0.00 0.00 0.00 72 1010.8
20260509223357 64 97 1.0 2.0 0.00 0.00 0.00 73 1010.7
20260509222854 64 72 1.0 3.0 0.00 0.00 0.00 71 1010.8
20260509222354 64 11 1.0 1.0 0.00 0.00 0.00 72 1011.0
20260509221850 63 301 2.0 3.0 0.00 0.00 0.00 73 1011.1
20260509221348 63 26 0.0 4.0 0.00 0.00 0.00 73 1010.7
20260509220843 62 15 0.0 2.0 0.00 0.00 0.00 75 1010.8
20260509220339 62 25 0.0 2.0 0.00 0.00 0.00 75 1010.8
20260509215835 62 31 1.0 4.0 0.00 0.00 0.00 74 1010.9
20260509215331 62 5 1.0 1.0 0.00 0.00 0.00 75 1010.9
20260509214829 62 34 5.0 7.0 0.00 0.00 0.00 74 1011.0
20260509214326 62 16 2.0 3.0 0.00 0.00 0.00 74 1011.0
20260509213823 62 17 0.0 2.0 0.00 0.00 0.00 74 1010.8
20260509213318 62 18 0.0 1.0 0.00 0.00 0.00 74 1010.9
20260509212816 62 40 1.0 2.0 0.00 0.00 0.00 74 1010.7
20260509212313 62 40 2.0 3.0 0.00 0.00 0.00 74 1010.7
20260509211809 62 9 1.0 1.0 0.00 0.00 0.00 73 1010.7
20260509211305 63 13 0.0 1.0 0.00 0.00 0.00 73 1010.7
20260509210802 63 29 0.0 1.0 0.00 0.00 0.00 73 1010.9
20260509210300 63 73 0.0 1.0 0.00 0.00 0.00 72 1010.8
20260509205759 63 7 1.0 2.0 0.00 0.00 0.00 72 1010.6
20260509205254 63 27 3.0 3.0 0.00 0.00 0.00 71 1010.6
20260509204750 63 9 0.0 3.0 0.00 0.00 0.00 71 1010.8
20260509204246 64 6 2.0 3.0 0.00 0.00 0.00 69 1010.8
20260509203742 63 291 1.0 3.0 0.00 0.00 0.00 70 1010.8
20260509203241 64 9 2.0 3.0 0.00 0.00 0.00 70 1010.7
20260509202736 63 351 0.0 2.0 0.00 0.00 0.00 70 1010.7
20260509202232 64 22 2.0 3.0 0.00 0.00 0.00 70 1010.7
20260509201727 64 296 2.0 4.0 0.00 0.00 0.00 70 1010.7
20260509201224 64 307 2.0 4.0 0.00 0.00 0.00 69 1010.7
20260509200720 64 13 2.0 4.0 0.00 0.00 0.00 69 1010.9
20260509200215 64 34 3.0 6.0 0.00 0.00 0.00 69 1010.9
20260509195711 64 334 2.0 2.0 0.00 0.00 0.00 70 1010.8
20260509195207 64 20 2.0 3.0 0.00 0.00 0.00 70 1010.8
20260509194707 63 25 0.0 2.0 0.00 0.00 0.00 72 1010.9
20260509194204 63 19 2.0 6.0 0.00 0.00 0.00 72 1010.9
20260509193700 64 26 3.0 6.0 0.00 0.00 0.00 70 1010.9
20260509193155 65 280 6.0 8.0 0.00 0.00 0.00 69 1010.7
20260509192652 65 359 3.0 3.0 0.00 0.00 0.00 69 1010.9
20260509192147 65 328 2.0 6.0 0.00 0.00 0.00 70 1011.0
20260509191647 64 26 0.0 2.0 0.00 0.00 0.00 70 1011.3
20260509191144 65 284 3.0 3.0 0.00 0.00 0.00 68 1011.3
20260509190640 64 359 1.0 2.0 0.00 0.00 0.00 69 1011.2
20260509190138 64 0 1.0 4.0 0.00 0.00 0.00 70 1011.6
20260509185636 64 44 3.0 6.0 0.00 0.00 0.00 68 1011.4
20260509185131 64 331 2.0 3.0 0.00 0.00 0.00 68 1011.7
20260509184629 64 288 3.0 7.0 0.00 0.00 0.00 68 1011.6
20260509184126 64 25 0.0 6.0 0.00 0.00 0.00 70 1011.7
20260509183622 64 8 3.0 4.0 0.00 0.00 0.00 70 1011.6
20260509183117 64 291 3.0 6.0 0.00 0.00 0.00 70 1011.6
20260509182614 64 277 2.0 4.0 0.00 0.00 0.00 69 1011.9
20260509182111 64 317 2.0 4.0 0.00 0.00 0.00 69 1011.5
20260509181609 64 312 2.0 6.0 0.00 0.00 0.00 68 1012.0
20260509181106 64 313 1.0 6.0 0.00 0.00 0.00 69 1011.7
20260509180602 64 291 0.0 4.0 0.00 0.00 0.00 67 1011.9
20260509180059 64 292 2.0 6.0 0.00 0.00 0.00 66 1012.0
20260509175554 65 309 3.0 4.0 0.00 0.00 0.00 64 1011.8
20260509175052 65 266 4.0 8.0 0.00 0.00 0.00 62 1011.9
20260509174548 65 254 2.0 7.0 0.00 0.00 0.00 63 1011.9
20260509174044 65 239 5.0 8.0 0.00 0.00 0.00 64 1011.8
20260509173544 65 290 5.0 9.0 0.00 0.00 0.00 65 1011.9
20260509173040 65 296 5.0 7.0 0.00 0.00 0.00 64 1012.0
20260509172538 66 267 3.0 4.0 0.00 0.00 0.00 64 1011.8
20260509172033 66 303 4.0 7.0 0.00 0.00 0.00 64 1011.8
20260509171529 67 303 2.0 7.0 0.00 0.00 0.00 63 1011.8
20260509171026 67 249 3.0 6.0 0.00 0.00 0.00 63 1011.7
20260509170521 67 276 3.0 4.0 0.00 0.00 0.00 62 1011.7
20260509170017 67 267 1.0 4.0 0.00 0.00 0.00 63 1012.0
20260509165516 65 275 1.0 6.0 0.00 0.00 0.00 64 1011.9
20260509165012 65 302 5.0 8.0 0.00 0.00 0.00 65 1012.0
20260509164508 67 292 6.0 7.0 0.00 0.00 0.00 65 1012.2
20260509164004 66 292 3.0 4.0 0.00 0.00 0.00 65 1012.1
20260509163502 66 253 2.0 3.0 0.00 0.00 0.00 65 1012.1
20260509163001 65 251 3.0 6.0 0.00 0.00 0.00 66 1012.1
20260509162500 65 276 2.0 6.0 0.00 0.00 0.00 67 1012.2
20260509161955 66 278 6.0 7.0 0.00 0.00 0.00 66 1012.0
20260509161452 66 267 5.0 8.0 0.00 0.00 0.00 67 1012.1
20260509160947 65 314 4.0 6.0 0.00 0.00 0.00 68 1012.0
20260509160443 66 12 1.0 2.0 0.00 0.00 0.00 69 1012.2
20260509155938 66 17 1.0 6.0 0.00 0.00 0.00 69 1012.3
20260509155435 64 271 1.0 7.0 0.00 0.00 0.00 69 1012.4
20260509154932 66 271 4.0 10.0 0.00 0.00 0.00 68 1012.5
20260509154428 66 264 3.0 10.0 0.00 0.00 0.00 68 1012.7
20260509153925 67 291 3.0 7.0 0.00 0.00 0.00 64 1012.6
20260509153422 67 266 2.0 3.0 0.00 0.00 0.00 62 1012.9
20260509152919 67 174 2.0 4.0 0.00 0.00 0.00 62 1012.8
20260509152415 67 295 2.0 8.0 0.00 0.00 0.00 61 1012.9
20260509151912 67 233 3.0 7.0 0.00 0.00 0.00 60 1012.8
20260509151408 67 232 1.0 10.0 0.00 0.00 0.00 60 1012.8
20260509150907 69 69 3.0 7.0 0.00 0.00 0.00 60 1012.7
20260509150404 69 277 1.0 3.0 0.00 0.00 0.00 59 1012.8
20260509145902 68 142 2.0 6.0 0.00 0.00 0.00 60 1013.0
20260509145401 67 255 0.0 6.0 0.00 0.00 0.00 64 1013.0
20260509144858 67 274 0.0 2.0 0.00 0.00 0.00 63 1013.3
20260509144355 67 269 0.0 4.0 0.00 0.00 0.00 64 1013.0
20260509143852 66 242 1.0 3.0 0.00 0.00 0.00 65 1013.0
20260509143349 66 304 2.0 3.0 0.00 0.00 0.00 65 1012.9
20260509142845 66 194 3.0 8.0 0.00 0.00 0.00 65 1013.0